Date String (YYYY-MM-DD hh:mm:ss) UTC,Instrument flags,Ambient pressure (hPa),Sample flow (lpm),Bypass flow (lpm),Sample temperature (°C),Ambient temperature (°C),ASC tube jacket temperature (°C),LED temperature (°C),Box temperature (°C),Sample RH (%),Span deviation,Mass concentration (μg/m³),Mass concentration (μg/m³),Mass concentration (μg/m³)
DateTimeUTC,F1_M11,P_M11,Q1_M11,Q2_M11,T1_M11,T2_M11,T3_M11,T4_M11,T5_M11,U1_M11,ZSPAN_M11,X0_M11,X2_M11,X1_M11
2023-03-11 14:00:00,,0814.4,4.99,0.00,22.1,20.4,00.0,30.9,23.9,21.7,0000.0,0005.10,0002.16,0001.87
2023-03-11 14:01:00,,0814.4,4.99,0.00,22.1,20.5,00.0,30.9,23.9,21.7,0000.0,0006.48,0002.26,0001.95
2023-03-11 14:02:00,,0814.4,5.00,0.00,22.1,20.5,00.0,30.9,23.9,21.7,0000.0,0007.06,0002.32,0001.98
2023-03-11 14:03:00,,0814.4,5.01,0.00,22.1,20.5,00.0,30.9,23.9,21.7,0000.0,0005.80,0002.34,0001.98
2023-03-11 14:04:00,,0814.3,5.03,0.00,22.1,20.7,00.0,30.9,23.9,21.5,0000.0,0005.72,0002.27,0001.90
2023-03-11 14:05:00,,0814.5,4.99,0.00,22.2,21.8,00.0,30.9,24.2,21.3,0000.0,0005.54,0002.13,0001.79
2023-03-11 14:06:00,,0814.4,5.00,0.00,22.3,23.0,00.0,30.9,24.4,21.2,0000.0,0005.31,0001.97,0001.68
2023-03-11 14:07:00,,0814.4,5.00,0.00,22.4,23.1,00.0,30.9,24.5,21.0,0000.0,0005.19,0001.87,0001.60
2023-03-11 14:08:00,,0814.5,4.99,0.00,22.5,22.6,00.0,31.0,24.5,21.1,0000.0,0005.04,0001.76,0001.50
2023-03-11 14:09:00,,0814.4,5.00,0.00,22.5,22.3,00.0,31.0,24.4,21.2,0000.0,0004.88,0001.64,0001.40
2023-03-11 14:10:00,,0814.4,5.01,0.00,22.5,22.0,00.0,31.1,24.4,21.2,0000.0,0004.81,0001.57,0001.32
2023-03-11 14:11:00,,0814.3,5.00,0.00,22.5,21.8,00.0,31.1,24.4,21.3,0000.0,0004.57,0001.51,0001.25
2023-03-11 14:12:00,,0814.3,5.00,0.00,22.5,21.6,00.0,31.1,24.4,21.2,0000.0,0003.83,0001.43,0001.20
2023-03-11 14:13:00,,0814.4,5.00,0.00,22.5,21.5,00.0,31.1,24.3,21.4,0000.0,0002.06,0001.37,0001.14
2023-03-11 14:14:00,,0814.9,4.99,0.00,22.5,21.4,00.0,31.1,24.4,21.7,0000.0,0001.91,0001.30,0001.09
2023-03-11 14:15:00,,0815.0,5.00,0.00,22.5,21.3,00.0,31.1,24.3,21.5,0000.0,0001.88,0001.28,0001.09
2023-03-11 14:16:00,,0814.9,5.00,0.00,22.5,21.3,00.0,31.2,24.3,21.1,0000.0,0001.93,0001.31,0001.11
2023-03-11 14:17:00,,0815.0,5.00,0.00,22.5,21.2,00.0,31.2,24.3,21.0,0000.0,0002.04,0001.36,0001.14
2023-03-11 14:18:00,,0815.1,5.00,0.00,22.5,21.2,00.0,31.2,24.3,20.9,0000.0,0002.02,0001.35,0001.12
2023-03-11 14:19:00,,0815.0,5.00,0.00,22.5,21.1,00.0,31.2,24.3,20.8,0000.0,0001.83,0001.32,0001.10
2023-03-11 14:20:00,,0814.9,5.01,0.00,22.5,21.1,00.0,31.2,24.3,20.7,0000.0,0001.87,0001.32,0001.07
2023-03-11 14:21:00,,0814.9,5.00,0.00,22.5,21.1,00.0,31.2,24.3,20.5,0000.0,0001.87,0001.30,0001.03
2023-03-11 14:22:00,,0814.8,5.00,0.00,22.5,21.1,00.0,31.2,24.3,20.7,0000.0,0001.81,0001.24,0000.98
2023-03-11 14:23:00,,0814.9,5.00,0.00,22.5,21.1,00.0,31.2,24.3,21.2,0000.0,0001.77,0001.21,0000.95
2023-03-11 14:24:00,,0814.9,5.00,0.00,22.5,21.1,00.0,31.2,24.3,21.3,0000.0,0001.80,0001.18,0000.94
2023-03-11 14:25:00,,0815.0,5.01,0.00,22.5,21.1,00.0,31.2,24.3,21.1,0000.0,0002.26,0001.18,0000.94
2023-03-11 14:26:00,,0815.3,5.00,0.00,22.5,21.1,00.0,31.2,24.3,20.7,0000.0,0002.26,0001.18,0000.92
2023-03-11 14:27:00,,0814.9,5.00,0.00,22.5,21.2,00.0,31.2,24.3,20.5,0000.0,0002.24,0001.16,0000.90
2023-03-11 14:28:00,,0814.9,5.01,0.00,22.5,21.2,00.0,31.2,24.3,20.8,0000.0,0002.13,0001.12,0000.89
2023-03-11 14:29:00,,0814.9,5.01,0.00,22.5,21.2,00.0,31.2,24.3,20.9,0000.0,0002.15,0001.10,0000.89
2023-03-11 14:30:00,,0814.9,5.00,0.00,22.5,21.2,00.0,31.2,24.4,20.6,0000.0,0002.11,0001.08,0000.90
2023-03-11 14:31:00,,0814.9,4.99,0.00,22.5,21.2,00.0,31.2,24.4,20.2,0000.0,0002.07,0001.07,0000.90
2023-03-11 14:32:00,,0814.9,4.99,0.00,22.5,21.2,00.0,31.2,24.4,20.1,0000.0,0002.01,0001.04,0000.90
2023-03-11 14:33:00,,0814.9,5.00,0.00,22.5,21.2,00.0,31.2,24.4,20.1,0000.0,0002.08,0001.06,0000.91
2023-03-11 14:34:00,,0815.0,5.00,0.00,22.5,21.2,00.0,31.2,24.4,19.9,0000.0,0002.07,0001.04,0000.89
2023-03-11 14:35:00,,0815.0,5.00,0.00,22.5,21.2,00.0,31.2,24.4,20.2,0000.0,0001.88,0001.00,0000.86
2023-03-11 14:36:00,,0815.0,4.99,0.00,22.5,21.2,00.0,31.2,24.4,19.9,0000.0,0001.55,0000.97,0000.83
2023-03-11 14:37:00,,0815.0,5.00,0.00,22.5,21.2,00.0,31.2,24.4,20.0,0000.0,0001.54,0000.95,0000.83
2023-03-11 14:38:00,,0815.2,4.99,0.00,22.5,21.2,00.0,31.2,24.4,20.0,0000.0,0001.54,0000.97,0000.83
2023-03-11 14:39:00,,0815.2,5.00,0.00,22.5,21.2,00.0,31.2,24.4,20.0,0000.0,0001.56,0000.97,0000.83
2023-03-11 14:40:00,,0815.1,5.00,0.00,22.5,21.3,00.0,31.2,24.4,19.9,0000.0,0001.50,0000.97,0000.82
2023-03-11 14:41:00,,0815.1,5.00,0.00,22.5,21.2,00.0,31.2,24.4,19.9,0000.0,0001.55,0000.97,0000.81
2023-03-11 14:42:00,,0815.0,5.00,0.00,22.5,21.2,00.0,31.2,24.4,19.8,0000.0,0001.58,0000.97,0000.80
2023-03-11 14:43:00,,0815.2,5.00,0.00,22.5,21.2,00.0,31.2,24.4,20.6,0000.0,0001.81,0001.03,0000.82
2023-03-11 14:44:00,,0815.0,5.00,0.00,22.5,21.1,00.0,31.3,24.4,20.3,0000.0,0001.80,0001.04,0000.83
2023-03-11 14:45:00,,0815.0,5.00,0.00,22.5,21.1,00.0,31.3,24.4,20.5,0000.0,0001.86,0001.07,0000.85
2023-03-11 14:46:00,,0815.0,5.00,0.00,22.5,21.1,00.0,31.3,24.4,20.7,0000.0,0001.89,0001.09,0000.87
2023-03-11 14:47:00,,0815.1,5.00,0.00,22.5,21.0,00.0,31.3,24.4,20.6,0000.0,0001.74,0001.09,0000.89
2023-03-11 14:48:00,,0815.1,5.00,0.00,22.5,21.1,00.0,31.3,24.3,21.1,0000.0,0001.76,0001.11,0000.90
2023-03-11 14:49:00,,0815.0,5.01,0.00,22.5,21.1,00.0,31.3,24.4,21.0,0000.0,0001.91,0001.12,0000.91
2023-03-11 14:50:00,,0815.0,5.01,0.00,22.5,21.2,00.0,31.3,24.4,20.1,0000.0,0001.96,0001.14,0000.91
2023-03-11 14:51:00,,0815.1,4.99,0.00,22.5,21.1,00.0,31.2,24.3,19.8,0000.0,0001.97,0001.18,0000.94
2023-03-11 14:52:00,,0815.2,5.00,0.00,22.5,21.1,00.0,31.2,24.4,19.9,0000.0,0001.95,0001.19,0000.96
2023-03-11 14:53:00,,0815.2,4.99,0.00,22.5,21.1,00.0,31.2,24.3,20.1,0000.0,0001.93,0001.21,0000.99
2023-03-11 14:54:00,,0815.1,5.00,0.00,22.5,21.2,00.0,31.2,24.4,20.1,0000.0,0001.85,0001.21,0001.00
2023-03-11 14:55:00,,0815.2,5.01,0.00,22.5,21.2,00.0,31.2,24.4,20.4,0000.0,0001.84,0001.21,0001.01
2023-03-11 14:56:00,,0815.0,5.00,0.00,22.5,21.2,00.0,31.2,24.4,20.3,0000.0,0001.85,0001.22,0001.02
2023-03-11 14:57:00,,0815.0,5.00,0.00,22.5,21.2,00.0,31.2,24.4,20.9,0000.0,0001.94,0001.25,0001.04
2023-03-11 14:58:00,,0815.0,4.99,0.00,22.5,21.3,00.0,31.3,24.4,20.7,0000.0,0002.03,0001.28,0001.05
2023-03-11 14:59:00,,0815.0,5.00,0.00,22.5,21.3,00.0,31.2,24.4,20.3,0000.0,0002.08,0001.31,0001.06
